Year,Month,Day,Hour,Minute,Value (Times are PST for temperature in C)
2006,11,29,00,00,-5.50
2006,11,29,00,01,-5.50
2006,11,29,00,02,-5.50
2006,11,29,00,03,-5.50
2006,11,29,00,04,-5.50
2006,11,29,00,05,-5.50
2006,11,29,00,06,-5.50
2006,11,29,00,07,-5.50
2006,11,29,00,08,-5.50
2006,11,29,00,09,-5.50
2006,11,29,00,10,-5.50
2006,11,29,00,11,-5.50
2006,11,29,00,12,-5.50
2006,11,29,00,13,-5.60
2006,11,29,00,14,-5.60
2006,11,29,00,15,-5.60
2006,11,29,00,16,-5.60
2006,11,29,00,17,-5.50
2006,11,29,00,18,-5.50
2006,11,29,00,19,-5.50
2006,11,29,00,20,-5.50
2006,11,29,00,21,-5.50
2006,11,29,00,22,-5.40
2006,11,29,00,23,-5.40
2006,11,29,00,24,-5.40
2006,11,29,00,25,-5.40
2006,11,29,00,26,-5.40
2006,11,29,00,27,-5.40
2006,11,29,00,28,-5.40
2006,11,29,00,29,-5.40
2006,11,29,00,30,-5.40
2006,11,29,00,31,-5.40
2006,11,29,00,32,-5.30
2006,11,29,00,33,-5.30
2006,11,29,00,34,-5.30
2006,11,29,00,35,-5.30
2006,11,29,00,36,-5.30
2006,11,29,00,37,-5.30
2006,11,29,00,38,-5.30
2006,11,29,00,39,-5.30
2006,11,29,00,40,-5.30
2006,11,29,00,41,-5.30
2006,11,29,00,42,-5.30
2006,11,29,00,43,-5.30
2006,11,29,00,44,-5.30
2006,11,29,00,45,-5.30
2006,11,29,00,46,-5.30
2006,11,29,00,47,-5.30
2006,11,29,00,48,-5.30
2006,11,29,00,49,-5.30
2006,11,29,00,50,-5.30
2006,11,29,00,51,-5.30
2006,11,29,00,52,-5.30
2006,11,29,00,53,-5.30
2006,11,29,00,54,-5.30
2006,11,29,00,55,-5.30
2006,11,29,00,56,-5.30
2006,11,29,00,57,-5.30
2006,11,29,00,58,-5.30
2006,11,29,00,59,-5.30
2006,11,29,01,00,-5.30
2006,11,29,01,01,-5.30
2006,11,29,01,02,-5.30
2006,11,29,01,03,-5.30
2006,11,29,01,04,-5.30
2006,11,29,01,05,-5.30
2006,11,29,01,06,-5.30
2006,11,29,01,07,-5.30
2006,11,29,01,08,-5.30
2006,11,29,01,09,-5.30
2006,11,29,01,10,-5.30
2006,11,29,01,11,-5.30
2006,11,29,01,12,-5.30
2006,11,29,01,13,-5.30
2006,11,29,01,14,-5.30
2006,11,29,01,15,-5.30
2006,11,29,01,16,-5.30
2006,11,29,01,17,-5.30
2006,11,29,01,18,-5.30
2006,11,29,01,19,-5.30
2006,11,29,01,20,-5.30
2006,11,29,01,21,-5.20
2006,11,29,01,22,-5.20
2006,11,29,01,23,-5.20
2006,11,29,01,24,-5.20
2006,11,29,01,25,-5.20
2006,11,29,01,26,-5.20
2006,11,29,01,27,-5.30
2006,11,29,01,28,-5.30
2006,11,29,01,29,-5.30
2006,11,29,01,30,-5.30
2006,11,29,01,31,-5.30
2006,11,29,01,32,-5.30
2006,11,29,01,33,-5.30
2006,11,29,01,34,-5.30
2006,11,29,01,35,-5.30
2006,11,29,01,36,-5.30
2006,11,29,01,37,-5.30
2006,11,29,01,38,-5.30
2006,11,29,01,39,-5.40
2006,11,29,01,40,-5.40
2006,11,29,01,41,-5.40
2006,11,29,01,42,-5.40
2006,11,29,01,43,-5.40
2006,11,29,01,44,-5.40
2006,11,29,01,45,-5.40
2006,11,29,01,46,-5.40
2006,11,29,01,47,-5.40
2006,11,29,01,48,-5.40
2006,11,29,01,49,-5.40
2006,11,29,01,50,-5.30
2006,11,29,01,51,-5.30
2006,11,29,01,52,-5.30
2006,11,29,01,53,-5.30
2006,11,29,01,54,-5.30
2006,11,29,01,55,-5.30
2006,11,29,01,56,-5.30
2006,11,29,01,57,-5.30
2006,11,29,01,58,-5.30
2006,11,29,01,59,-5.30
2006,11,29,02,00,-5.30
2006,11,29,02,01,-5.30
2006,11,29,02,02,-5.30
2006,11,29,02,03,-5.30
2006,11,29,02,04,-5.30
2006,11,29,02,05,-5.30
2006,11,29,02,06,-5.20
2006,11,29,02,07,-5.10
2006,11,29,02,08,-5.10
2006,11,29,02,09,-5.10
2006,11,29,02,10,-5.10
2006,11,29,02,11,-5.10
2006,11,29,02,12,-5.10
2006,11,29,02,13,-5.10
2006,11,29,02,14,-5.10
2006,11,29,02,15,-5.10
2006,11,29,02,16,-5.10
2006,11,29,02,17,-5.10
2006,11,29,02,18,-5.10
2006,11,29,02,19,-5.10
2006,11,29,02,20,-5.10
2006,11,29,02,21,-5.10
2006,11,29,02,22,-5.10
2006,11,29,02,23,-5.10
2006,11,29,02,24,-5.10
2006,11,29,02,25,-5.10
2006,11,29,02,26,-5.10
2006,11,29,02,27,-5.10
2006,11,29,02,28,-5.10
2006,11,29,02,29,-5.10
2006,11,29,02,30,-5.10
2006,11,29,02,31,-5.10
2006,11,29,02,32,-5.00
2006,11,29,02,33,-5.00
2006,11,29,02,34,-5.00
2006,11,29,02,35,-5.00
2006,11,29,02,36,-5.00
2006,11,29,02,37,-5.10
2006,11,29,02,38,-5.10
2006,11,29,02,39,-5.10
2006,11,29,02,40,-5.10
2006,11,29,02,41,-5.10
2006,11,29,02,42,-5.10
2006,11,29,02,43,-5.10
2006,11,29,02,44,-5.20
2006,11,29,02,45,-5.20
2006,11,29,02,46,-5.20
2006,11,29,02,47,-5.20
2006,11,29,02,48,-5.20
2006,11,29,02,49,-5.20
2006,11,29,02,50,-5.20
2006,11,29,02,51,-5.20
2006,11,29,02,52,-5.20
2006,11,29,02,53,-5.30
2006,11,29,02,54,-5.30
2006,11,29,02,55,-5.30
2006,11,29,02,56,-5.30
2006,11,29,02,57,-5.30
2006,11,29,02,58,-5.40
2006,11,29,02,59,-5.40
2006,11,29,03,00,-5.40
2006,11,29,03,01,-5.40
2006,11,29,03,02,-5.40
2006,11,29,03,03,-5.40
2006,11,29,03,04,-5.40
2006,11,29,03,05,-5.40
2006,11,29,03,06,-5.40
2006,11,29,03,07,-5.40
2006,11,29,03,08,-5.40
2006,11,29,03,09,-5.40
2006,11,29,03,10,-5.40
2006,11,29,03,11,-5.40
2006,11,29,03,12,-5.40
2006,11,29,03,13,-5.40
2006,11,29,03,14,-5.30
2006,11,29,03,15,-5.30
2006,11,29,03,16,-5.30
2006,11,29,03,17,-5.30
2006,11,29,03,18,-5.30
2006,11,29,03,19,-5.30
2006,11,29,03,20,-5.30
2006,11,29,03,21,-5.30
2006,11,29,03,22,-5.30
2006,11,29,03,23,-5.30
2006,11,29,03,24,-5.30
2006,11,29,03,25,-5.30
2006,11,29,03,26,-5.30
2006,11,29,03,27,-5.30
2006,11,29,03,28,-5.30
2006,11,29,03,29,-5.30
2006,11,29,03,30,-5.30
2006,11,29,03,31,-5.30
2006,11,29,03,32,-5.30
2006,11,29,03,33,-5.30
2006,11,29,03,34,-5.30
2006,11,29,03,35,-5.20
2006,11,29,03,36,-5.20
2006,11,29,03,37,-5.20
2006,11,29,03,38,-5.20
2006,11,29,03,39,-5.20
2006,11,29,03,40,-5.20
2006,11,29,03,41,-5.20
2006,11,29,03,42,-5.20
2006,11,29,03,43,-5.20
2006,11,29,03,44,-5.20
2006,11,29,03,45,-5.10
2006,11,29,03,46,-5.10
2006,11,29,03,47,-5.10
2006,11,29,03,48,-5.10
2006,11,29,03,49,-5.10
2006,11,29,03,50,-5.10
2006,11,29,03,51,-5.10
2006,11,29,03,52,-5.10
2006,11,29,03,53,-5.10
2006,11,29,03,54,-5.10
2006,11,29,03,55,-5.10
2006,11,29,03,56,-5.00
2006,11,29,03,57,-5.00
2006,11,29,03,58,-5.00
2006,11,29,03,59,-5.00
2006,11,29,04,00,-5.00
2006,11,29,04,01,-4.90
2006,11,29,04,02,-4.90
2006,11,29,04,03,-4.90
2006,11,29,04,04,-4.90
2006,11,29,04,05,-4.90
2006,11,29,04,06,-4.80
2006,11,29,04,07,-4.80
2006,11,29,04,08,-4.80
2006,11,29,04,09,-4.80
2006,11,29,04,10,-4.80
2006,11,29,04,11,-4.80
2006,11,29,04,12,-4.70
2006,11,29,04,13,-4.70
2006,11,29,04,14,-4.70
2006,11,29,04,15,-4.70
2006,11,29,04,16,-4.70
2006,11,29,04,17,-4.70
2006,11,29,04,18,-4.70
2006,11,29,04,19,-4.70
2006,11,29,04,20,-4.70
2006,11,29,04,21,-4.70
2006,11,29,04,22,-4.70
2006,11,29,04,23,-4.70
2006,11,29,04,24,-4.70
2006,11,29,04,25,-4.70
2006,11,29,04,26,-4.70
2006,11,29,04,27,-4.60
2006,11,29,04,28,-4.60
2006,11,29,04,29,-4.60
2006,11,29,04,30,-4.60
2006,11,29,04,31,-4.60
2006,11,29,04,32,-4.60
2006,11,29,04,33,-4.60
2006,11,29,04,34,-4.60
2006,11,29,04,35,-4.60
2006,11,29,04,36,-4.60
2006,11,29,04,37,-4.60
2006,11,29,04,38,-4.60
2006,11,29,04,39,-4.60
2006,11,29,04,40,-4.60
2006,11,29,04,41,-4.60
2006,11,29,04,42,-4.60
2006,11,29,04,43,-4.60
2006,11,29,04,44,-4.60
2006,11,29,04,45,-4.60
2006,11,29,04,46,-4.60
2006,11,29,04,47,-4.60
2006,11,29,04,48,-4.60
2006,11,29,04,49,-4.60
2006,11,29,04,50,-4.60
2006,11,29,04,51,-4.60
2006,11,29,04,52,-4.60
2006,11,29,04,53,-4.60
2006,11,29,04,54,-4.60
2006,11,29,04,55,-4.70
2006,11,29,04,56,-4.70
2006,11,29,04,57,-4.70
2006,11,29,04,58,-4.70
2006,11,29,04,59,-4.70
2006,11,29,05,00,-4.60
2006,11,29,05,01,-4.60
2006,11,29,05,02,-4.60
2006,11,29,05,03,-4.60
2006,11,29,05,04,-4.60
2006,11,29,05,05,-4.60
2006,11,29,05,06,-4.60
2006,11,29,05,07,-4.60
2006,11,29,05,08,-4.60
2006,11,29,05,09,-4.60
2006,11,29,05,10,-4.60
2006,11,29,05,11,-4.50
2006,11,29,05,12,-4.50
2006,11,29,05,13,-4.50
2006,11,29,05,14,-4.50
2006,11,29,05,15,-4.50
2006,11,29,05,16,-4.50
2006,11,29,05,17,-4.50
2006,11,29,05,18,-4.50
2006,11,29,05,19,-4.50
2006,11,29,05,20,-4.50
2006,11,29,05,21,-4.50
2006,11,29,05,22,-4.50
2006,11,29,05,23,-4.50
2006,11,29,05,24,-4.50
2006,11,29,05,25,-4.50
2006,11,29,05,26,-4.50
2006,11,29,05,27,-4.50
2006,11,29,05,28,-4.50
2006,11,29,05,29,-4.50
2006,11,29,05,30,-4.50
2006,11,29,05,31,-4.50
2006,11,29,05,32,-4.50
2006,11,29,05,33,-4.50
2006,11,29,05,34,-4.50
2006,11,29,05,35,-4.50
2006,11,29,05,36,-4.50
2006,11,29,05,37,-4.40
2006,11,29,05,38,-4.40
2006,11,29,05,39,-4.40
2006,11,29,05,40,-4.40
2006,11,29,05,41,-4.40
2006,11,29,05,42,-4.30
2006,11,29,05,43,-4.30
2006,11,29,05,44,-4.30
2006,11,29,05,45,-4.30
2006,11,29,05,46,-4.30
2006,11,29,05,47,-4.30
2006,11,29,05,48,-4.30
2006,11,29,05,49,-4.30
2006,11,29,05,50,-4.40
2006,11,29,05,51,-4.40
2006,11,29,05,52,-4.40
2006,11,29,05,53,-4.50
2006,11,29,05,54,-4.50
2006,11,29,05,55,-4.60
2006,11,29,05,56,-4.60
2006,11,29,05,57,-4.70
2006,11,29,05,58,-4.70
2006,11,29,05,59,-4.70
2006,11,29,06,00,-4.70
2006,11,29,06,01,-4.70
2006,11,29,06,02,-4.70
2006,11,29,06,03,-4.70
2006,11,29,06,04,-4.70
2006,11,29,06,05,-4.70
2006,11,29,06,06,-4.70
2006,11,29,06,07,-4.70
2006,11,29,06,08,-4.70
2006,11,29,06,09,-4.70
2006,11,29,06,10,-4.70
2006,11,29,06,11,-4.70
2006,11,29,06,12,-4.70
2006,11,29,06,13,-4.70
2006,11,29,06,14,-4.70
2006,11,29,06,15,-4.70
2006,11,29,06,16,-4.70
2006,11,29,06,17,-4.70
2006,11,29,06,18,-4.70
2006,11,29,06,19,-4.70
2006,11,29,06,20,-4.70
2006,11,29,06,21,-4.70
2006,11,29,06,22,-4.80
2006,11,29,06,23,-4.80
2006,11,29,06,24,-4.80
2006,11,29,06,25,-4.80
2006,11,29,06,26,-4.80
2006,11,29,06,27,-4.80
2006,11,29,06,28,-4.80
2006,11,29,06,29,-4.70
2006,11,29,06,30,-4.70
2006,11,29,06,31,-4.70
2006,11,29,06,32,-4.70
2006,11,29,06,33,-4.70
2006,11,29,06,34,-4.70
2006,11,29,06,35,-4.70
2006,11,29,06,36,-4.70
2006,11,29,06,37,-4.70
2006,11,29,06,38,-4.70
2006,11,29,06,39,-4.70
2006,11,29,06,40,-4.70
2006,11,29,06,41,-4.60
2006,11,29,06,42,-4.60
2006,11,29,06,43,-4.60
2006,11,29,06,44,-4.60
2006,11,29,06,45,-4.50
2006,11,29,06,46,-4.50
2006,11,29,06,47,-4.50
2006,11,29,06,48,-4.50
2006,11,29,06,49,-4.50
2006,11,29,06,50,-4.50
2006,11,29,06,51,-4.50
2006,11,29,06,52,-4.50
2006,11,29,06,53,-4.50
2006,11,29,06,54,-4.50
2006,11,29,06,55,-4.50
2006,11,29,06,56,-4.50
2006,11,29,06,57,-4.50
2006,11,29,06,58,-4.50
2006,11,29,06,59,-4.50
2006,11,29,07,00,-4.50
2006,11,29,07,01,-4.60
2006,11,29,07,02,-4.50
2006,11,29,07,03,-4.50
2006,11,29,07,04,-4.50
2006,11,29,07,05,-4.50
2006,11,29,07,06,-4.50
2006,11,29,07,07,-4.50
2006,11,29,07,08,-4.40
2006,11,29,07,09,-4.40
2006,11,29,07,10,-4.40
2006,11,29,07,11,-4.40
2006,11,29,07,12,-4.40
2006,11,29,07,13,-4.40
2006,11,29,07,14,-4.40
2006,11,29,07,15,-4.40
2006,11,29,07,16,-4.40
2006,11,29,07,17,-4.30
2006,11,29,07,18,-4.30
2006,11,29,07,19,-4.30
2006,11,29,07,20,-4.20
2006,11,29,07,21,-4.20
2006,11,29,07,22,-4.20
2006,11,29,07,23,-4.20
2006,11,29,07,24,-4.20
2006,11,29,07,25,-4.20
2006,11,29,07,26,-4.20
2006,11,29,07,27,-4.20
2006,11,29,07,28,-4.20
2006,11,29,07,29,-4.20
2006,11,29,07,30,-4.20
2006,11,29,07,31,-4.20
2006,11,29,07,32,-4.20
2006,11,29,07,33,-4.20
2006,11,29,07,34,-4.20
2006,11,29,07,35,-4.20
2006,11,29,07,36,-4.20
2006,11,29,07,37,-4.10
2006,11,29,07,38,-4.10
2006,11,29,07,39,-4.10
2006,11,29,07,40,-4.10
2006,11,29,07,41,-4.00
2006,11,29,07,42,-4.00
2006,11,29,07,43,-4.00
2006,11,29,07,44,-3.90
2006,11,29,07,45,-3.90
2006,11,29,07,46,-3.90
2006,11,29,07,47,-3.90
2006,11,29,07,48,-3.80
2006,11,29,07,49,-3.80
2006,11,29,07,50,-3.80
2006,11,29,07,51,-3.80
2006,11,29,07,52,-3.80
2006,11,29,07,53,-3.80
2006,11,29,07,54,-3.80
2006,11,29,07,55,-3.80
2006,11,29,07,56,-3.80
2006,11,29,07,57,-3.80
2006,11,29,07,58,-3.80
2006,11,29,07,59,-3.80
2006,11,29,08,00,-3.80
2006,11,29,08,01,-3.80
2006,11,29,08,02,-3.80
2006,11,29,08,03,-3.80
2006,11,29,08,04,-3.80
2006,11,29,08,05,-3.70
2006,11,29,08,06,-3.70
2006,11,29,08,07,-3.70
2006,11,29,08,08,-3.70
2006,11,29,08,09,-3.70
2006,11,29,08,10,-3.70
2006,11,29,08,11,-3.70
2006,11,29,08,12,-3.70
2006,11,29,08,13,-3.70
2006,11,29,08,14,-3.70
2006,11,29,08,15,-3.70
2006,11,29,08,16,-3.70
2006,11,29,08,17,-3.70
2006,11,29,08,18,-3.70
2006,11,29,08,19,-3.70
2006,11,29,08,20,-3.70
2006,11,29,08,21,-3.70
2006,11,29,08,22,-3.70
2006,11,29,08,23,-3.70
2006,11,29,08,24,-3.70
2006,11,29,08,25,-3.70
2006,11,29,08,26,-3.70
2006,11,29,08,27,-3.70
2006,11,29,08,28,-3.60
2006,11,29,08,29,-3.60
2006,11,29,08,30,-3.60
2006,11,29,08,31,-3.60
2006,11,29,08,32,-3.60
2006,11,29,08,33,-3.60
2006,11,29,08,34,-3.50
2006,11,29,08,35,-3.50
2006,11,29,08,36,-3.50
2006,11,29,08,37,-3.50
2006,11,29,08,38,-3.50
2006,11,29,08,39,-3.50
2006,11,29,08,40,-3.50
2006,11,29,08,41,-3.50
2006,11,29,08,42,-3.50
2006,11,29,08,43,-3.50
2006,11,29,08,44,-3.50
2006,11,29,08,45,-3.50
2006,11,29,08,46,-3.50
2006,11,29,08,47,-3.40
2006,11,29,08,48,-3.40
2006,11,29,08,49,-3.40
2006,11,29,08,50,-3.40
2006,11,29,08,51,-3.40
2006,11,29,08,52,-3.40
2006,11,29,08,53,-3.40
2006,11,29,08,54,-3.40
2006,11,29,08,55,-3.40
2006,11,29,08,56,-3.40
2006,11,29,08,57,-3.40
2006,11,29,08,58,-3.40
2006,11,29,08,59,-3.40
2006,11,29,09,00,-3.40
2006,11,29,09,01,-3.40
2006,11,29,09,02,-3.40
2006,11,29,09,03,-3.40
2006,11,29,09,04,-3.40
2006,11,29,09,05,-3.40
2006,11,29,09,06,-3.40
2006,11,29,09,07,-3.40
2006,11,29,09,08,-3.40
2006,11,29,09,09,-3.40
2006,11,29,09,10,-3.40
2006,11,29,09,11,-3.40
2006,11,29,09,12,-3.40
2006,11,29,09,13,-3.40
2006,11,29,09,14,-3.40
2006,11,29,09,15,-3.30
2006,11,29,09,16,-3.30
2006,11,29,09,17,-3.30
2006,11,29,09,18,-3.30
2006,11,29,09,19,-3.30
2006,11,29,09,20,-3.30
2006,11,29,09,21,-3.30
2006,11,29,09,22,-3.30
2006,11,29,09,23,-3.30
2006,11,29,09,24,-3.30
2006,11,29,09,25,-3.30
2006,11,29,09,26,-3.30
2006,11,29,09,27,-3.30
2006,11,29,09,28,-3.30
2006,11,29,09,29,-3.30
2006,11,29,09,30,-3.30
2006,11,29,09,31,-3.30
2006,11,29,09,32,-3.30
2006,11,29,09,33,-3.30
2006,11,29,09,34,-3.30
2006,11,29,09,35,-3.30
2006,11,29,09,36,-3.30
2006,11,29,09,37,-3.20
2006,11,29,09,38,-3.20
2006,11,29,09,39,-3.20
2006,11,29,09,40,-3.20
2006,11,29,09,41,-3.20
2006,11,29,09,42,-3.20
2006,11,29,09,43,-3.20
2006,11,29,09,44,-3.20
2006,11,29,09,45,-3.20
2006,11,29,09,46,-3.20
2006,11,29,09,47,-3.20
2006,11,29,09,48,-3.10
2006,11,29,09,49,-3.10
2006,11,29,09,50,-3.10
2006,11,29,09,51,-3.10
2006,11,29,09,52,-3.10
2006,11,29,09,53,-3.10
2006,11,29,09,54,-3.10
2006,11,29,09,55,-3.10
2006,11,29,09,56,-3.10
2006,11,29,09,57,-3.10
2006,11,29,09,58,-3.10
2006,11,29,09,59,-3.10
2006,11,29,10,00,-3.10
2006,11,29,10,01,-3.10
2006,11,29,10,02,-3.10
2006,11,29,10,03,-3.10
2006,11,29,10,04,-3.10
2006,11,29,10,05,-3.10
2006,11,29,10,06,-3.10
2006,11,29,10,07,-3.10
2006,11,29,10,08,-3.10
2006,11,29,10,09,-3.10
2006,11,29,10,10,-3.00
2006,11,29,10,11,-3.00
2006,11,29,10,12,-3.00
2006,11,29,10,13,-3.00
2006,11,29,10,14,-3.00
2006,11,29,10,15,-3.00
2006,11,29,10,16,-3.00
2006,11,29,10,17,-3.00
2006,11,29,10,18,-3.00
2006,11,29,10,19,-3.00
2006,11,29,10,20,-3.00
2006,11,29,10,21,-3.00
2006,11,29,10,22,-3.00
2006,11,29,10,23,-3.00
2006,11,29,10,24,-2.90
2006,11,29,10,25,-2.90
2006,11,29,10,26,-2.90
2006,11,29,10,27,-2.90
2006,11,29,10,28,-2.90
2006,11,29,10,29,-2.80
2006,11,29,10,30,-2.80
2006,11,29,10,31,-2.80
2006,11,29,10,32,-2.80
2006,11,29,10,33,-2.80
2006,11,29,10,34,-2.80
2006,11,29,10,35,-2.80
2006,11,29,10,36,-2.80
2006,11,29,10,37,-2.80
2006,11,29,10,38,-2.80
2006,11,29,10,39,-2.80
2006,11,29,10,40,-2.80
2006,11,29,10,41,-2.80
2006,11,29,10,42,-2.80
2006,11,29,10,43,-2.80
2006,11,29,10,44,-2.80
2006,11,29,10,45,-2.80
2006,11,29,10,46,-2.80
2006,11,29,10,47,-2.80
2006,11,29,10,48,-2.80
2006,11,29,10,49,-2.80
2006,11,29,10,50,-2.80
2006,11,29,10,51,-2.70
2006,11,29,10,52,-2.70
2006,11,29,10,53,-2.70
2006,11,29,10,54,-2.70
2006,11,29,10,55,-2.70
2006,11,29,10,56,-2.80
2006,11,29,10,57,-2.80
2006,11,29,10,58,-2.80
2006,11,29,10,59,-2.80
2006,11,29,11,00,-2.80
2006,11,29,11,01,-2.80
2006,11,29,11,02,-2.80
2006,11,29,11,03,-2.80
2006,11,29,11,04,-2.80
2006,11,29,11,05,-2.80
2006,11,29,11,06,-2.90
2006,11,29,11,07,-2.90
2006,11,29,11,08,-2.90
2006,11,29,11,09,-2.90
2006,11,29,11,10,-2.90
2006,11,29,11,11,-2.90
2006,11,29,11,12,-2.90
2006,11,29,11,13,-2.90
2006,11,29,11,14,-2.90
2006,11,29,11,15,-2.90
2006,11,29,11,16,-2.90
2006,11,29,11,17,-2.90
2006,11,29,11,18,-2.90
2006,11,29,11,19,-2.90
2006,11,29,11,20,-2.90
2006,11,29,11,21,-2.90
2006,11,29,11,22,-2.90
2006,11,29,11,23,-2.90
2006,11,29,11,24,-2.90
2006,11,29,11,25,-3.00
2006,11,29,11,26,-3.00
2006,11,29,11,27,-3.00
2006,11,29,11,28,-3.00
2006,11,29,11,29,-3.00
2006,11,29,11,30,-3.00
2006,11,29,11,31,-3.00
2006,11,29,11,32,-3.00
2006,11,29,11,33,-3.00
2006,11,29,11,34,-3.00
2006,11,29,11,35,-3.00
2006,11,29,11,36,-3.00
2006,11,29,11,37,-3.00
2006,11,29,11,38,-3.00
2006,11,29,11,39,-3.00
2006,11,29,11,40,-3.00
2006,11,29,11,41,-3.10
2006,11,29,11,42,-3.10
2006,11,29,11,43,-3.10
2006,11,29,11,44,-3.10
2006,11,29,11,45,-3.10
2006,11,29,11,46,-3.10
2006,11,29,11,47,-3.10
2006,11,29,11,48,-3.10
2006,11,29,11,49,-3.10
2006,11,29,11,50,-3.10
2006,11,29,11,51,-3.10
2006,11,29,11,52,-3.10
2006,11,29,11,53,-3.10
2006,11,29,11,54,-3.10
2006,11,29,11,55,-3.10
2006,11,29,11,56,-3.10
2006,11,29,11,57,-3.10
2006,11,29,11,58,-3.10
2006,11,29,11,59,-3.10
2006,11,29,12,00,-3.10
2006,11,29,12,01,-3.10
2006,11,29,12,02,-3.10
2006,11,29,12,03,-3.10
2006,11,29,12,04,-3.10
2006,11,29,12,05,-3.10
2006,11,29,12,06,-3.10
2006,11,29,12,07,-3.10
2006,11,29,12,08,-3.10
2006,11,29,12,09,-3.10
2006,11,29,12,10,-3.10
2006,11,29,12,11,-3.10
2006,11,29,12,12,-3.10
2006,11,29,12,13,-3.10
2006,11,29,12,14,-3.10
2006,11,29,12,15,-3.10
2006,11,29,12,16,-3.10
2006,11,29,12,17,-3.10
2006,11,29,12,18,-3.00
2006,11,29,12,19,-3.00
2006,11,29,12,20,-3.00
2006,11,29,12,21,-3.00
2006,11,29,12,22,-3.00
2006,11,29,12,23,-3.00
2006,11,29,12,24,-3.00
2006,11,29,12,25,-3.00
2006,11,29,12,26,-3.00
2006,11,29,12,27,-3.00
2006,11,29,12,28,-3.00
2006,11,29,12,29,-3.00
2006,11,29,12,30,-3.00
2006,11,29,12,31,-3.00
2006,11,29,12,32,-3.00
2006,11,29,12,33,-3.00
2006,11,29,12,34,-3.00
2006,11,29,12,35,-3.00
2006,11,29,12,36,-3.00
2006,11,29,12,37,-3.00
2006,11,29,12,38,-3.00
2006,11,29,12,39,-3.00
2006,11,29,12,40,-3.00
2006,11,29,12,41,-3.00
2006,11,29,12,42,-3.00
2006,11,29,12,43,-3.00
2006,11,29,12,44,-3.00
2006,11,29,12,45,-3.00
2006,11,29,12,46,-3.00
2006,11,29,12,47,-3.00
2006,11,29,12,48,-3.00
2006,11,29,12,49,-3.00
2006,11,29,12,50,-3.00
2006,11,29,12,51,-3.00
2006,11,29,12,52,-3.00
2006,11,29,12,53,-3.00
2006,11,29,12,54,-2.90
2006,11,29,12,55,-2.90
2006,11,29,12,56,-2.90
2006,11,29,12,57,-2.90
2006,11,29,12,58,-2.90
2006,11,29,12,59,-2.90
2006,11,29,13,00,-2.80
2006,11,29,13,01,-2.80
2006,11,29,13,02,-2.90
2006,11,29,13,03,-2.90
2006,11,29,13,04,-2.90
2006,11,29,13,05,-2.90
2006,11,29,13,06,-2.80
2006,11,29,13,07,-2.80
2006,11,29,13,08,-2.80
2006,11,29,13,09,-2.80
2006,11,29,13,10,-2.80
2006,11,29,13,11,-2.80
2006,11,29,13,12,-2.80
2006,11,29,13,13,-2.80
2006,11,29,13,14,-2.80
2006,11,29,13,15,-2.80
2006,11,29,13,16,-2.80
2006,11,29,13,17,-2.80
2006,11,29,13,18,-2.80
2006,11,29,13,19,-2.80
2006,11,29,13,20,-2.80
2006,11,29,13,21,-2.80
2006,11,29,13,22,-2.80
2006,11,29,13,23,-2.80
2006,11,29,13,24,-2.80
2006,11,29,13,25,-2.80
2006,11,29,13,26,-2.80
2006,11,29,13,27,-2.70
2006,11,29,13,28,-2.70
2006,11,29,13,29,-2.70
2006,11,29,13,30,-2.70
2006,11,29,13,31,-2.60
2006,11,29,13,32,-2.60
2006,11,29,13,33,-2.60
2006,11,29,13,34,-2.60
2006,11,29,13,35,-2.60
2006,11,29,13,36,-2.60
2006,11,29,13,37,-2.60
2006,11,29,13,38,-2.50
2006,11,29,13,39,-2.50
2006,11,29,13,40,-2.50
2006,11,29,13,41,-2.50
2006,11,29,13,42,-2.40
2006,11,29,13,43,-2.40
2006,11,29,13,44,-2.40
2006,11,29,13,45,-2.40
2006,11,29,13,46,-2.40
2006,11,29,13,47,-2.40
2006,11,29,13,48,-2.40
2006,11,29,13,49,-2.30
2006,11,29,13,50,-2.30
2006,11,29,13,51,-2.30
2006,11,29,13,52,-2.30
2006,11,29,13,53,-2.30
2006,11,29,13,54,-2.30
2006,11,29,13,55,-2.30
2006,11,29,13,56,-2.30
2006,11,29,13,57,-2.30
2006,11,29,13,58,-2.20
2006,11,29,13,59,-2.20
2006,11,29,14,00,-2.20
2006,11,29,14,01,-2.20
2006,11,29,14,02,-2.10
2006,11,29,14,03,-2.10
2006,11,29,14,04,-2.10
2006,11,29,14,05,-2.10
2006,11,29,14,06,-2.10
2006,11,29,14,07,-2.10
2006,11,29,14,08,-2.10
2006,11,29,14,09,-2.00
2006,11,29,14,10,-2.00
2006,11,29,14,11,-2.00
2006,11,29,14,12,-1.90
2006,11,29,14,13,-1.90
2006,11,29,14,14,-1.90
2006,11,29,14,15,-1.90
2006,11,29,14,16,-1.90
2006,11,29,14,17,-1.90
2006,11,29,14,18,-1.90
2006,11,29,14,19,-1.90
2006,11,29,14,20,-1.80
2006,11,29,14,21,-1.80
2006,11,29,14,22,-1.80
2006,11,29,14,23,-1.80
2006,11,29,14,24,-1.80
2006,11,29,14,25,-1.80
2006,11,29,14,26,-1.80
2006,11,29,14,27,-1.70
2006,11,29,14,28,-1.70
2006,11,29,14,29,-1.60
2006,11,29,14,30,-1.60
2006,11,29,14,31,-1.60
2006,11,29,14,32,-1.60
2006,11,29,14,33,-1.60
2006,11,29,14,34,-1.50
2006,11,29,14,35,-1.50
2006,11,29,14,36,-1.40
2006,11,29,14,37,-1.40
2006,11,29,14,38,-1.40
2006,11,29,14,39,-1.40
2006,11,29,14,40,-1.40
2006,11,29,14,41,-1.30
2006,11,29,14,42,-1.20
2006,11,29,14,43,-1.20
2006,11,29,14,44,-1.10
2006,11,29,14,45,-1.10
2006,11,29,14,46,-1.00
2006,11,29,14,47,-0.90
2006,11,29,14,48,-0.90
2006,11,29,14,49,-0.90
2006,11,29,14,50,-0.90
2006,11,29,14,51,-0.80
2006,11,29,14,52,-0.80
2006,11,29,14,53,-0.80
2006,11,29,14,54,-0.80
2006,11,29,14,55,-0.70
2006,11,29,14,56,-0.70
2006,11,29,14,57,-0.70
2006,11,29,14,58,-0.70
2006,11,29,14,59,-0.60
2006,11,29,15,00,-0.60
2006,11,29,15,01,-0.60
2006,11,29,15,02,-0.60
2006,11,29,15,03,-0.60
2006,11,29,15,04,-0.60
2006,11,29,15,05,-0.60
2006,11,29,15,06,-0.50
2006,11,29,15,07,-0.40
2006,11,29,15,08,-0.40
2006,11,29,15,09,-0.40
2006,11,29,15,10,-0.40
2006,11,29,15,11,-0.40
2006,11,29,15,12,-0.40
2006,11,29,15,13,-0.40
2006,11,29,15,14,-0.40
2006,11,29,15,15,-0.40
2006,11,29,15,16,-0.40
2006,11,29,15,17,-0.40
2006,11,29,15,18,-0.40
2006,11,29,15,19,-0.40
2006,11,29,15,20,-0.40
2006,11,29,15,21,-0.30
2006,11,29,15,22,-0.30
2006,11,29,15,23,-0.30
2006,11,29,15,24,-0.30
2006,11,29,15,25,-0.30
2006,11,29,15,26,-0.30
2006,11,29,15,27,-0.30
2006,11,29,15,28,-0.30
2006,11,29,15,29,-0.30
2006,11,29,15,30,-0.30
2006,11,29,15,31,-0.30
2006,11,29,15,32,-0.30
2006,11,29,15,33,-0.30
2006,11,29,15,34,-0.20
2006,11,29,15,35,-0.20
2006,11,29,15,36,-0.20
2006,11,29,15,37,-0.20
2006,11,29,15,38,-0.10
2006,11,29,15,39,-0.10
2006,11,29,15,40,-0.10
2006,11,29,15,41,-0.10
2006,11,29,15,42,-0.10
2006,11,29,15,43,-0.10
2006,11,29,15,44,-0.10
2006,11,29,15,45,-0.10
2006,11,29,15,46,-0.10
2006,11,29,15,47,-0.10
2006,11,29,15,48,0.00
2006,11,29,15,49,0.10
2006,11,29,15,50,0.10
2006,11,29,15,51,0.10
2006,11,29,15,52,0.10
2006,11,29,15,53,0.10
2006,11,29,15,54,0.20
2006,11,29,15,55,0.20
2006,11,29,15,56,0.20
2006,11,29,15,57,0.20
2006,11,29,15,58,0.30
2006,11,29,15,59,0.30
2006,11,29,16,00,0.30
2006,11,29,16,01,0.30
2006,11,29,16,02,0.40
2006,11,29,16,03,0.40
2006,11,29,16,04,0.40
2006,11,29,16,05,0.40
2006,11,29,16,06,0.40
2006,11,29,16,07,0.50
2006,11,29,16,08,0.50
2006,11,29,16,09,0.50
2006,11,29,16,10,0.60
2006,11,29,16,11,0.60
2006,11,29,16,12,0.60
2006,11,29,16,13,0.60
2006,11,29,16,14,0.60
2006,11,29,16,15,0.60
2006,11,29,16,16,0.60
2006,11,29,16,17,0.70
2006,11,29,16,18,0.70
2006,11,29,16,19,0.70
2006,11,29,16,20,0.70
2006,11,29,16,21,0.70
2006,11,29,16,22,0.70
2006,11,29,16,23,0.70
2006,11,29,16,24,0.70
2006,11,29,16,25,0.70
2006,11,29,16,26,0.70
2006,11,29,16,27,0.70
2006,11,29,16,28,0.80
2006,11,29,16,29,0.80
2006,11,29,16,30,0.80
2006,11,29,16,31,0.80
2006,11,29,16,32,0.80
2006,11,29,16,33,0.80
2006,11,29,16,34,0.80
2006,11,29,16,35,0.80
2006,11,29,16,36,0.80
2006,11,29,16,37,0.80
2006,11,29,16,38,0.80
2006,11,29,16,39,0.80
2006,11,29,16,40,0.80
2006,11,29,16,41,0.80
2006,11,29,16,42,0.80
2006,11,29,16,43,0.90
2006,11,29,16,44,0.90
2006,11,29,16,45,0.90
2006,11,29,16,46,0.90
2006,11,29,16,47,0.90
2006,11,29,16,48,0.90
2006,11,29,16,49,0.90
2006,11,29,16,50,0.90
2006,11,29,16,51,1.00
2006,11,29,16,52,1.00
2006,11,29,16,53,1.00
2006,11,29,16,54,1.10
2006,11,29,16,55,1.10
2006,11,29,16,56,1.20
2006,11,29,16,57,1.20
2006,11,29,16,58,1.20
2006,11,29,16,59,1.30
2006,11,29,17,00,1.30
2006,11,29,17,01,1.30
2006,11,29,17,02,1.30
2006,11,29,17,03,1.30
2006,11,29,17,04,1.30
2006,11,29,17,05,1.30
2006,11,29,17,06,1.30
2006,11,29,17,07,1.30
2006,11,29,17,08,1.30
2006,11,29,17,09,1.30
2006,11,29,17,10,1.30
2006,11,29,17,11,1.30
2006,11,29,17,12,1.40
2006,11,29,17,13,1.40
2006,11,29,17,14,1.40
2006,11,29,17,15,1.40
2006,11,29,17,16,1.40
2006,11,29,17,17,1.40
2006,11,29,17,18,1.40
2006,11,29,17,19,1.40
2006,11,29,17,20,1.30
2006,11,29,17,21,1.30
2006,11,29,17,22,1.30
2006,11,29,17,23,1.30